Weather History for KBIX - June, 2013

Change the Weather History Date:

Friday, June 21, 2013

  Actual Average Record
Temperature  
Mean Temperature 79 °F -  
Max Temperature 87 °F 89 °F 98 °F (1972)
Min Temperature 72 °F 74 °F 65 °F (1969)
Cooling Degree Days 14    
Growing Degree Days 29 (Base 50)    
Moisture  
Dew Point 72 °F    
Average Humidity 79    
Maximum Humidity 93    
Minimum Humidity 66    
Precipitation  
Precipitation 0.04 in - - ()
Sea Level Pressure  
Sea Level Pressure 30.10 in    
Wind  
Wind Speed 7 mph (East)    
Max Wind Speed 18 mph    
Max Gust Speed 25 mph    
Visibility 10 miles    
Events Rain , Thunderstorm    
Averages and records for this station are not official NWS values.
T = Trace of Precipitation, MM = Missing Value Source: NWS Daily Summary

Daily Weather History Graph

Daily Weather History Graph

Search for Another Location

Airport or City:

Trip Planner

Search our weather history database for the weather conditions in past years. The results will help you decide how hot, cold, wet, or windy it might be!

Date:

Astronomy

Jun. 21, 2013 Rise Set
Actual Time 5:54 AM CDT 8:00 PM CDT
Civil Twilight 5:26 AM CDT 8:28 PM CDT
Nautical Twilight 4:52 AM CDT 9:02 PM CDT
Astronomical Twilight 4:16 AM CDT 9:38 PM CDT
Moon 6:15 PM CDT (6/21) 4:03 AM CDT (6/21)
Length of Visible Light 15h 02m
Length of Day
14h 06m
Waxing Gibbous, 95% of the Moon is Illuminated
Jun 21
Waxing Gibbous
Jun 23
Full
Jun 29
Last Quarter
Jul 8
New
Jul 15
First Quarter

Hourly Weather History & Observations

Time (CDT) Temp. Heat Index Dew Point Humidity Pressure Visibility Wind Dir Wind Speed Gust Speed Precip Events Conditions
12:58 AM 74.1 °F - 70.3 °F 88% 30.07 in 10.0 mi North 3.5 mph - N/A   Clear
1:58 AM 73.4 °F - 70.0 °F 89% 30.06 in 10.0 mi Variable 3.5 mph - N/A   Clear
2:58 AM 72.7 °F - 69.8 °F 91% 30.06 in 10.0 mi ENE 5.8 mph - N/A   Clear
3:58 AM 72.5 °F - 70.2 °F 92% 30.07 in 10.0 mi NNE 2.3 mph - N/A   Clear
4:58 AM 72.3 °F - 70.2 °F 93% 30.07 in 10.0 mi NNE 3.5 mph - N/A   Clear
5:58 AM 72.0 °F - 69.8 °F 93% 30.09 in 10.0 mi NE 6.9 mph - N/A   Clear
6:58 AM 73.2 °F - 71.2 °F 93% 30.09 in 10.0 mi NE 5.8 mph - N/A   Clear
7:58 AM 76.3 °F - 72.5 °F 88% 30.11 in 10.0 mi NE 3.5 mph - N/A   Clear
8:58 AM 81.1 °F 85.8 °F 72.7 °F 75% 30.11 in 10.0 mi ENE 6.9 mph - N/A   Clear
9:58 AM 83.3 °F 89.3 °F 73.0 °F 71% 30.12 in 10.0 mi ENE 6.9 mph - N/A   Clear
10:58 AM 86.2 °F 93.8 °F 73.6 °F 66% 30.13 in 10.0 mi NE 4.6 mph - N/A   Clear
11:43 AM 84.2 °F 92.3 °F 75.2 °F 74% 30.12 in 10.0 mi South 9.2 mph - N/A   Mostly Cloudy
11:48 AM 84.2 °F 92.3 °F 75.2 °F 74% 30.12 in 10.0 mi SE 11.5 mph - N/A   Mostly Cloudy
11:53 AM 86.0 °F 95.1 °F 75.2 °F 70% 30.12 in 10.0 mi SE 11.5 mph - N/A   Mostly Cloudy
11:58 AM 85.5 °F 93.8 °F 74.8 °F 70% 30.14 in 10.0 mi SSE 11.5 mph - N/A   Mostly Cloudy
12:03 PM 86.0 °F 93.4 °F 73.4 °F 66% 30.12 in 10.0 mi SSE 10.4 mph - N/A   Mostly Cloudy
12:58 PM 84.9 °F 92.1 °F 73.8 °F 69% 30.13 in 10.0 mi South 9.2 mph - N/A   Mostly Cloudy
1:58 PM 86.2 °F 93.8 °F 73.6 °F 66% 30.12 in 10.0 mi SSE 10.4 mph - N/A   Scattered Clouds
2:04 PM 86.0 °F 95.1 °F 75.2 °F 70% 30.10 in 10.0 mi SSE 8.1 mph - N/A Rain Light Rain
2:14 PM 82.4 °F 89.5 °F 75.2 °F 79% 30.10 in 6.0 mi ESE 9.2 mph 19.6 mph N/A Rain , Thunderstorm Light Rain
2:21 PM 78.8 °F - 73.4 °F 83% 30.10 in 7.0 mi SSE 10.4 mph 19.6 mph N/A Rain , Thunderstorm Light Thunderstorms and Rain
2:36 PM 78.8 °F - 69.8 °F 74% 30.11 in 9.0 mi East 13.8 mph 25.3 mph N/A Rain , Thunderstorm Light Thunderstorms and Rain
2:41 PM 78.8 °F - 69.8 °F 74% 30.11 in 9.0 mi East 17.3 mph 20.7 mph N/A Thunderstorm Thunderstorm
2:43 PM 78.8 °F - 69.8 °F 74% 30.10 in 6.0 mi East 18.4 mph - N/A Rain , Thunderstorm Thunderstorms and Rain
2:58 PM 77.2 °F - 69.4 °F 77% 30.11 in 10.0 mi East 10.4 mph - 0.04 in Rain , Thunderstorm Light Thunderstorms and Rain
3:01 PM 77.0 °F - 69.8 °F 78% 30.10 in 10.0 mi East 9.2 mph - N/A Rain , Thunderstorm Light Rain
3:20 PM 78.8 °F - 71.6 °F 78% 30.10 in 10.0 mi ESE 5.8 mph - N/A Thunderstorm Partly Cloudy
3:23 PM 78.8 °F - 71.6 °F 78% 30.10 in 10.0 mi East 4.6 mph - N/A Thunderstorm Scattered Clouds
3:24 PM 78.8 °F - 71.6 °F 78% 30.10 in 10.0 mi East 4.6 mph - N/A Rain , Thunderstorm Light Rain
3:39 PM 78.8 °F - 71.6 °F 78% 30.10 in 10.0 mi ENE 11.5 mph - N/A   Scattered Clouds
3:58 PM 77.4 °F - 71.6 °F 82% 30.10 in 10.0 mi East 5.8 mph - 0.00 in Thunderstorm Mostly Cloudy
4:58 PM 79.5 °F - 71.1 °F 75% 30.08 in 10.0 mi Calm Calm - N/A   Mostly Cloudy
5:58 PM 79.9 °F - 71.6 °F 76% 30.08 in 10.0 mi ENE 2.3 mph - N/A   Scattered Clouds
6:51 PM 82.4 °F 89.5 °F 75.2 °F 79% 30.08 in 10.0 mi ENE 12.7 mph - N/A Thunderstorm Thunderstorm
6:58 PM 81.7 °F 86.7 °F 72.7 °F 74% 30.10 in 10.0 mi ENE 11.5 mph 18.4 mph N/A Thunderstorm Thunderstorm
7:06 PM 80.6 °F 84.6 °F 71.6 °F 74% 30.08 in 10.0 mi East 8.1 mph - N/A Thunderstorm Mostly Cloudy
7:58 PM 77.7 °F - 70.2 °F 77% 30.08 in 10.0 mi Calm Calm - N/A   Mostly Cloudy
8:58 PM 76.1 °F - 71.2 °F 85% 30.08 in 10.0 mi NE 3.5 mph - N/A   Clear
9:58 PM 74.8 °F - 70.3 °F 86% 30.10 in 10.0 mi NE 4.6 mph - N/A   Clear
10:58 PM 74.5 °F - 70.7 °F 88% 30.09 in 10.0 mi ENE 3.5 mph - N/A   Clear
11:58 PM 75.4 °F - 71.1 °F 86% 30.09 in 10.0 mi NNE 4.6 mph - N/A   Clear